TimeHST,TemperatureF,Dew PointF,Humidity,Sea Level PressureIn,VisibilityMPH,Wind Direction,Wind SpeedMPH,Gust SpeedMPH,PrecipitationIn,Events,Conditions,WindDirDegrees,DateUTC
12:53 AM,70.0,57.0,63,30.09,10.0,North,4.6,-,N/A,,Mostly Cloudy,10,2013-02-14 10:53:00
1:53 AM,70.0,57.9,65,30.08,10.0,North,3.5,-,N/A,,Mostly Cloudy,10,2013-02-14 11:53:00
2:53 AM,70.0,55.0,59,30.06,10.0,NE,8.1,-,N/A,,Mostly Cloudy,50,2013-02-14 12:53:00
3:53 AM,68.0,54.0,61,30.05,10.0,NNE,5.8,-,N/A,,Mostly Cloudy,20,2013-02-14 13:53:00
4:53 AM,68.0,54.0,61,30.06,10.0,NNE,4.6,-,N/A,,Mostly Cloudy,20,2013-02-14 14:53:00
5:53 AM,70.0,55.9,61,30.06,10.0,ENE,8.1,-,N/A,,Mostly Cloudy,60,2013-02-14 15:53:00
6:53 AM,70.0,55.9,61,30.07,10.0,NE,6.9,-,N/A,,Mostly Cloudy,40,2013-02-14 16:53:00
7:53 AM,71.1,57.0,61,30.09,10.0,ENE,9.2,-,N/A,,Scattered Clouds,60,2013-02-14 17:53:00
8:53 AM,73.0,55.9,55,30.11,10.0,ENE,9.2,-,N/A,,Scattered Clouds,60,2013-02-14 18:53:00
9:53 AM,75.0,55.9,51,30.12,10.0,ENE,11.5,-,N/A,,Scattered Clouds,60,2013-02-14 19:53:00
10:53 AM,75.9,55.0,48,30.09,10.0,ENE,13.8,20.7,N/A,,Scattered Clouds,60,2013-02-14 20:53:00
11:53 AM,77.0,55.9,48,30.08,10.0,ENE,9.2,-,N/A,,Mostly Cloudy,70,2013-02-14 21:53:00
12:53 PM,78.1,55.9,46,30.06,10.0,NE,13.8,19.6,N/A,,Scattered Clouds,50,2013-02-14 22:53:00
1:53 PM,78.1,55.9,46,30.03,10.0,NNE,11.5,-,N/A,,Mostly Cloudy,30,2013-02-14 23:53:00
2:53 PM,77.0,57.0,50,30.02,10.0,NNE,15.0,19.6,N/A,,Mostly Cloudy,20,2013-02-15 00:53:00
3:53 PM,77.0,57.0,50,30.01,10.0,NNE,10.4,17.3,N/A,,Mostly Cloudy,30,2013-02-15 01:53:00
4:53 PM,75.9,57.0,52,30.02,10.0,NNE,11.5,-,N/A,,Mostly Cloudy,30,2013-02-15 02:53:00
5:53 PM,73.9,57.0,55,30.03,10.0,NNE,13.8,-,N/A,,Scattered Clouds,30,2013-02-15 03:53:00
6:53 PM,72.0,57.9,61,30.04,10.0,ENE,15.0,19.6,N/A,,Mostly Cloudy,60,2013-02-15 04:53:00
7:53 PM,72.0,57.9,61,30.04,10.0,East,11.5,-,N/A,,Scattered Clouds,90,2013-02-15 05:53:00
8:53 PM,72.0,59.0,64,30.06,10.0,NE,10.4,-,N/A,,Mostly Cloudy,50,2013-02-15 06:53:00
9:53 PM,72.0,59.0,64,30.07,10.0,ENE,8.1,-,N/A,,Mostly Cloudy,60,2013-02-15 07:53:00
10:53 PM,71.1,59.0,66,30.08,10.0,NE,12.7,-,N/A,,Mostly Cloudy,50,2013-02-15 08:53:00
11:53 PM,71.1,57.9,63,30.07,10.0,NE,12.7,-,N/A,,Scattered Clouds,40,2013-02-15 09:53:00